Year,Month,Day,Hour,Minute,Value (Times are PST for temperature in C)
2014,07,04,00,00,14.30
2014,07,04,00,01,14.30
2014,07,04,00,02,14.40
2014,07,04,00,03,14.40
2014,07,04,00,04,14.40
2014,07,04,00,05,14.50
2014,07,04,00,06,14.50
2014,07,04,00,07,14.50
2014,07,04,00,08,14.60
2014,07,04,00,09,14.60
2014,07,04,00,10,14.60
2014,07,04,00,11,14.70
2014,07,04,00,12,14.70
2014,07,04,00,13,14.80
2014,07,04,00,14,14.80
2014,07,04,00,15,14.80
2014,07,04,00,16,14.80
2014,07,04,00,17,14.80
2014,07,04,00,18,14.80
2014,07,04,00,19,14.80
2014,07,04,00,20,14.80
2014,07,04,00,21,14.80
2014,07,04,00,22,14.80
2014,07,04,00,23,14.80
2014,07,04,00,24,14.80
2014,07,04,00,25,14.80
2014,07,04,00,26,14.80
2014,07,04,00,27,14.80
2014,07,04,00,28,14.80
2014,07,04,00,29,14.80
2014,07,04,00,30,14.80
2014,07,04,00,31,14.80
2014,07,04,00,32,14.80
2014,07,04,00,33,14.80
2014,07,04,00,34,14.80
2014,07,04,00,35,14.80
2014,07,04,00,36,14.80
2014,07,04,00,37,14.80
2014,07,04,00,38,14.80
2014,07,04,00,39,14.80
2014,07,04,00,40,14.80
2014,07,04,00,41,14.80
2014,07,04,00,42,14.70
2014,07,04,00,43,14.70
2014,07,04,00,44,14.70
2014,07,04,00,45,14.70
2014,07,04,00,46,14.70
2014,07,04,00,47,14.60
2014,07,04,00,48,14.60
2014,07,04,00,49,14.50
2014,07,04,00,50,14.50
2014,07,04,00,51,14.50
2014,07,04,00,52,14.40
2014,07,04,00,53,14.40
2014,07,04,00,54,14.30
2014,07,04,00,55,14.30
2014,07,04,00,56,14.20
2014,07,04,00,57,14.20
2014,07,04,00,58,14.20
2014,07,04,00,59,14.20
2014,07,04,01,00,14.20
2014,07,04,01,01,14.20
2014,07,04,01,02,14.10
2014,07,04,01,03,14.10
2014,07,04,01,04,14.10
2014,07,04,01,05,14.10
2014,07,04,01,06,14.10
2014,07,04,01,07,14.10
2014,07,04,01,08,14.10
2014,07,04,01,09,14.00
2014,07,04,01,10,14.00
2014,07,04,01,11,14.00
2014,07,04,01,12,14.00
2014,07,04,01,13,13.90
2014,07,04,01,14,13.90
2014,07,04,01,15,13.90
2014,07,04,01,16,13.90
2014,07,04,01,17,13.90
2014,07,04,01,18,13.80
2014,07,04,01,19,13.80
2014,07,04,01,20,13.70
2014,07,04,01,21,13.70
2014,07,04,01,22,13.70
2014,07,04,01,23,13.70
2014,07,04,01,24,13.60
2014,07,04,01,25,13.60
2014,07,04,01,26,13.50
2014,07,04,01,27,13.50
2014,07,04,01,28,13.40
2014,07,04,01,29,13.30
2014,07,04,01,30,13.30
2014,07,04,01,31,13.20
2014,07,04,01,32,13.20
2014,07,04,01,33,13.10
2014,07,04,01,34,13.10
2014,07,04,01,35,13.00
2014,07,04,01,36,12.90
2014,07,04,01,37,12.90
2014,07,04,01,38,12.80
2014,07,04,01,39,12.80
2014,07,04,01,40,12.80
2014,07,04,01,41,12.80
2014,07,04,01,42,12.80
2014,07,04,01,43,12.70
2014,07,04,01,44,12.70
2014,07,04,01,45,12.60
2014,07,04,01,46,12.60
2014,07,04,01,47,12.60
2014,07,04,01,48,12.60
2014,07,04,01,49,12.50
2014,07,04,01,50,12.50
2014,07,04,01,51,12.50
2014,07,04,01,52,12.50
2014,07,04,01,53,12.50
2014,07,04,01,54,12.40
2014,07,04,01,55,12.40
2014,07,04,01,56,12.40
2014,07,04,01,57,12.40
2014,07,04,01,58,12.40
2014,07,04,01,59,12.40
2014,07,04,02,00,12.30
2014,07,04,02,01,12.30
2014,07,04,02,02,12.30
2014,07,04,02,03,12.30
2014,07,04,02,04,12.30
2014,07,04,02,05,12.30
2014,07,04,02,06,12.30
2014,07,04,02,07,12.20
2014,07,04,02,08,12.20
2014,07,04,02,09,12.20
2014,07,04,02,10,12.20
2014,07,04,02,11,12.20
2014,07,04,02,12,12.20
2014,07,04,02,13,12.20
2014,07,04,02,14,12.20
2014,07,04,02,15,12.20
2014,07,04,02,16,12.10
2014,07,04,02,17,12.10
2014,07,04,02,18,12.10
2014,07,04,02,19,12.10
2014,07,04,02,20,12.10
2014,07,04,02,21,12.10
2014,07,04,02,22,12.00
2014,07,04,02,23,12.00
2014,07,04,02,24,12.00
2014,07,04,02,25,11.90
2014,07,04,02,26,11.90
2014,07,04,02,27,11.90
2014,07,04,02,28,11.90
2014,07,04,02,29,11.80
2014,07,04,02,30,11.80
2014,07,04,02,31,11.80
2014,07,04,02,32,11.80
2014,07,04,02,33,11.80
2014,07,04,02,34,11.80
2014,07,04,02,35,11.80
2014,07,04,02,36,11.80
2014,07,04,02,37,11.70
2014,07,04,02,38,11.70
2014,07,04,02,39,11.70
2014,07,04,02,40,11.70
2014,07,04,02,41,11.70
2014,07,04,02,42,11.70
2014,07,04,02,43,11.70
2014,07,04,02,44,11.70
2014,07,04,02,45,11.70
2014,07,04,02,46,11.70
2014,07,04,02,47,11.70
2014,07,04,02,48,11.70
2014,07,04,02,49,11.70
2014,07,04,02,50,11.70
2014,07,04,02,51,11.70
2014,07,04,02,52,11.70
2014,07,04,02,53,11.70
2014,07,04,02,54,11.70
2014,07,04,02,55,11.70
2014,07,04,02,56,11.60
2014,07,04,02,57,11.60
2014,07,04,02,58,11.60
2014,07,04,02,59,11.60
2014,07,04,03,00,11.60
2014,07,04,03,01,11.60
2014,07,04,03,02,11.60
2014,07,04,03,03,11.60
2014,07,04,03,04,11.50
2014,07,04,03,05,11.40
2014,07,04,03,06,11.40
2014,07,04,03,07,11.50
2014,07,04,03,08,11.60
2014,07,04,03,09,11.60
2014,07,04,03,10,11.60
2014,07,04,03,11,11.60
2014,07,04,03,12,11.60
2014,07,04,03,13,11.60
2014,07,04,03,14,11.60
2014,07,04,03,15,11.60
2014,07,04,03,16,11.60
2014,07,04,03,17,11.60
2014,07,04,03,18,11.60
2014,07,04,03,19,11.60
2014,07,04,03,20,11.40
2014,07,04,03,21,11.40
2014,07,04,03,22,11.40
2014,07,04,03,23,11.40
2014,07,04,03,24,11.40
2014,07,04,03,25,11.40
2014,07,04,03,26,11.40
2014,07,04,03,27,11.40
2014,07,04,03,28,11.40
2014,07,04,03,29,11.40
2014,07,04,03,30,11.40
2014,07,04,03,31,11.40
2014,07,04,03,32,11.40
2014,07,04,03,33,11.40
2014,07,04,03,34,11.40
2014,07,04,03,35,11.40
2014,07,04,03,36,11.40
2014,07,04,03,37,11.40
2014,07,04,03,38,11.40
2014,07,04,03,39,11.30
2014,07,04,03,40,11.30
2014,07,04,03,41,11.30
2014,07,04,03,42,11.30
2014,07,04,03,43,11.30
2014,07,04,03,44,11.30
2014,07,04,03,45,11.30
2014,07,04,03,46,11.30
2014,07,04,03,47,11.30
2014,07,04,03,48,11.30
2014,07,04,03,49,11.30
2014,07,04,03,50,11.30
2014,07,04,03,51,11.30
2014,07,04,03,52,11.30
2014,07,04,03,53,11.30
2014,07,04,03,54,11.30
2014,07,04,03,55,11.30
2014,07,04,03,56,11.30
2014,07,04,03,57,11.30
2014,07,04,03,58,11.30
2014,07,04,03,59,11.30
2014,07,04,04,00,11.30
2014,07,04,04,01,11.30
2014,07,04,04,02,11.30
2014,07,04,04,03,11.30
2014,07,04,04,04,11.30
2014,07,04,04,05,11.40
2014,07,04,04,06,11.40
2014,07,04,04,07,11.40
2014,07,04,04,08,11.40
2014,07,04,04,09,11.40
2014,07,04,04,10,11.30
2014,07,04,04,11,11.30
2014,07,04,04,12,11.30
2014,07,04,04,13,11.30
2014,07,04,04,14,11.30
2014,07,04,04,15,11.30
2014,07,04,04,16,11.30
2014,07,04,04,17,11.30
2014,07,04,04,18,11.30
2014,07,04,04,19,11.30
2014,07,04,04,20,11.20
2014,07,04,04,21,11.20
2014,07,04,04,22,11.20
2014,07,04,04,23,11.20
2014,07,04,04,24,11.20
2014,07,04,04,25,11.20
2014,07,04,04,26,11.20
2014,07,04,04,27,11.20
2014,07,04,04,28,11.20
2014,07,04,04,29,11.20
2014,07,04,04,30,11.10
2014,07,04,04,31,11.10
2014,07,04,04,32,11.10
2014,07,04,04,33,11.10
2014,07,04,04,34,11.10
2014,07,04,04,35,11.10
2014,07,04,04,36,11.10
2014,07,04,04,37,11.00
2014,07,04,04,38,10.90
2014,07,04,04,39,10.90
2014,07,04,04,40,10.90
2014,07,04,04,41,10.90
2014,07,04,04,42,10.90
2014,07,04,04,43,10.90
2014,07,04,04,44,10.90
2014,07,04,04,45,10.90
2014,07,04,04,46,10.90
2014,07,04,04,47,10.90
2014,07,04,04,48,11.00
2014,07,04,04,49,11.10
2014,07,04,04,50,11.10
2014,07,04,04,51,11.10
2014,07,04,04,52,11.10
2014,07,04,04,53,11.10
2014,07,04,04,54,11.10
2014,07,04,04,55,11.10
2014,07,04,04,56,11.10
2014,07,04,04,57,11.10
2014,07,04,04,58,11.10
2014,07,04,04,59,11.10
2014,07,04,05,00,11.10
2014,07,04,05,01,11.10
2014,07,04,05,02,11.20
2014,07,04,05,03,11.20
2014,07,04,05,04,11.20
2014,07,04,05,05,11.20
2014,07,04,05,06,11.20
2014,07,04,05,07,11.20
2014,07,04,05,08,11.20
2014,07,04,05,09,11.20
2014,07,04,05,10,11.20
2014,07,04,05,11,11.10
2014,07,04,05,12,11.10
2014,07,04,05,13,11.10
2014,07,04,05,14,11.10
2014,07,04,05,15,11.10
2014,07,04,05,16,11.10
2014,07,04,05,17,11.10
2014,07,04,05,18,11.10
2014,07,04,05,19,11.10
2014,07,04,05,20,11.10
2014,07,04,05,21,11.00
2014,07,04,05,22,10.90
2014,07,04,05,23,10.90
2014,07,04,05,24,10.90
2014,07,04,05,25,10.90
2014,07,04,05,26,10.90
2014,07,04,05,27,10.90
2014,07,04,05,28,10.90
2014,07,04,05,29,10.90
2014,07,04,05,30,10.90
2014,07,04,05,31,10.90
2014,07,04,05,32,10.90
2014,07,04,05,33,10.90
2014,07,04,05,34,10.90
2014,07,04,05,35,10.90
2014,07,04,05,36,10.90
2014,07,04,05,37,10.80
2014,07,04,05,38,10.80
2014,07,04,05,39,10.80
2014,07,04,05,40,10.80
2014,07,04,05,41,10.80
2014,07,04,05,42,10.70
2014,07,04,05,43,10.70
2014,07,04,05,44,10.70
2014,07,04,05,45,10.70
2014,07,04,05,46,10.60
2014,07,04,05,47,10.60
2014,07,04,05,48,10.60
2014,07,04,05,49,10.60
2014,07,04,05,50,10.60
2014,07,04,05,51,10.60
2014,07,04,05,52,10.60
2014,07,04,05,53,10.60
2014,07,04,05,54,10.60
2014,07,04,05,55,10.60
2014,07,04,05,56,10.60
2014,07,04,05,57,10.60
2014,07,04,05,58,10.60
2014,07,04,05,59,10.60
2014,07,04,06,00,10.50
2014,07,04,06,01,10.40
2014,07,04,06,02,10.40
2014,07,04,06,03,10.50
2014,07,04,06,04,10.60
2014,07,04,06,05,10.60
2014,07,04,06,06,10.60
2014,07,04,06,07,10.60
2014,07,04,06,08,10.60
2014,07,04,06,09,10.60
2014,07,04,06,10,10.60
2014,07,04,06,11,10.60
2014,07,04,06,12,10.60
2014,07,04,06,13,10.60
2014,07,04,06,14,10.60
2014,07,04,06,15,10.60
2014,07,04,06,16,10.60
2014,07,04,06,17,10.60
2014,07,04,06,18,10.60
2014,07,04,06,19,10.70
2014,07,04,06,20,10.70
2014,07,04,06,21,10.70
2014,07,04,06,22,10.70
2014,07,04,06,23,10.70
2014,07,04,06,24,10.70
2014,07,04,06,25,10.70
2014,07,04,06,26,10.80
2014,07,04,06,27,10.80
2014,07,04,06,28,10.90
2014,07,04,06,29,10.90
2014,07,04,06,30,10.90
2014,07,04,06,31,11.00
2014,07,04,06,32,11.10
2014,07,04,06,33,11.10
2014,07,04,06,34,11.20
2014,07,04,06,35,11.30
2014,07,04,06,36,11.40
2014,07,04,06,37,11.60
2014,07,04,06,38,11.70
2014,07,04,06,39,11.80
2014,07,04,06,40,11.90
2014,07,04,06,41,12.00
2014,07,04,06,42,12.10
2014,07,04,06,43,12.20
2014,07,04,06,44,12.30
2014,07,04,06,45,12.40
2014,07,04,06,46,12.50
2014,07,04,06,47,12.60
2014,07,04,06,48,12.60
2014,07,04,06,49,12.70
2014,07,04,06,50,12.80
2014,07,04,06,51,12.90
2014,07,04,06,52,13.00
2014,07,04,06,53,13.10
2014,07,04,06,54,13.20
2014,07,04,06,55,13.30
2014,07,04,06,56,13.40
2014,07,04,06,57,13.50
2014,07,04,06,58,13.70
2014,07,04,06,59,13.90
2014,07,04,07,00,14.00
2014,07,04,07,01,14.10
2014,07,04,07,02,14.20
2014,07,04,07,03,14.20
2014,07,04,07,04,14.30
2014,07,04,07,05,14.40
2014,07,04,07,06,14.50
2014,07,04,07,07,14.50
2014,07,04,07,08,14.60
2014,07,04,07,09,14.60
2014,07,04,07,10,14.70
2014,07,04,07,11,14.70
2014,07,04,07,12,14.70
2014,07,04,07,13,14.70
2014,07,04,07,14,14.80
2014,07,04,07,15,14.80
2014,07,04,07,16,14.80
2014,07,04,07,17,14.80
2014,07,04,07,18,14.80
2014,07,04,07,19,14.80
2014,07,04,07,20,14.80
2014,07,04,07,21,14.80
2014,07,04,07,22,14.70
2014,07,04,07,23,14.70
2014,07,04,07,24,14.60
2014,07,04,07,25,14.60
2014,07,04,07,26,14.50
2014,07,04,07,27,14.50
2014,07,04,07,28,14.50
2014,07,04,07,29,14.40
2014,07,04,07,30,14.40
2014,07,04,07,31,14.40
2014,07,04,07,32,14.40
2014,07,04,07,33,14.40
2014,07,04,07,34,14.40
2014,07,04,07,35,14.40
2014,07,04,07,36,14.40
2014,07,04,07,37,14.40
2014,07,04,07,38,14.40
2014,07,04,07,39,14.50
2014,07,04,07,40,14.50
2014,07,04,07,41,14.50
2014,07,04,07,42,14.50
2014,07,04,07,43,14.50
2014,07,04,07,44,14.50
2014,07,04,07,45,14.60
2014,07,04,07,46,14.60
2014,07,04,07,47,14.70
2014,07,04,07,48,14.80
2014,07,04,07,49,14.80
2014,07,04,07,50,14.80
2014,07,04,07,51,14.90
2014,07,04,07,52,14.90
2014,07,04,07,53,14.90
2014,07,04,07,54,15.00
2014,07,04,07,55,15.00
2014,07,04,07,56,15.00
2014,07,04,07,57,15.00
2014,07,04,07,58,15.00
2014,07,04,07,59,15.00
2014,07,04,08,00,15.00
2014,07,04,08,01,15.00
2014,07,04,08,02,15.00
2014,07,04,08,03,15.00
2014,07,04,08,04,15.00
2014,07,04,08,05,15.00
2014,07,04,08,06,15.00
2014,07,04,08,07,15.00
2014,07,04,08,08,14.90
2014,07,04,08,09,14.90
2014,07,04,08,10,14.80
2014,07,04,08,11,14.80
2014,07,04,08,12,14.80
2014,07,04,08,13,14.90
2014,07,04,08,14,14.90
2014,07,04,08,15,14.90
2014,07,04,08,16,15.00
2014,07,04,08,17,15.00
2014,07,04,08,18,15.00
2014,07,04,08,19,15.10
2014,07,04,08,20,15.10
2014,07,04,08,21,15.10
2014,07,04,08,22,15.00
2014,07,04,08,23,15.00
2014,07,04,08,24,15.00
2014,07,04,08,25,15.00
2014,07,04,08,26,14.90
2014,07,04,08,27,14.90
2014,07,04,08,28,14.90
2014,07,04,08,29,14.90
2014,07,04,08,30,14.90
2014,07,04,08,31,14.90
2014,07,04,08,32,14.90
2014,07,04,08,33,15.00
2014,07,04,08,34,15.00
2014,07,04,08,35,15.00
2014,07,04,08,36,15.00
2014,07,04,08,37,15.10
2014,07,04,08,38,15.10
2014,07,04,08,39,15.10
2014,07,04,08,40,15.10
2014,07,04,08,41,15.10
2014,07,04,08,42,15.10
2014,07,04,08,43,15.10
2014,07,04,08,44,15.10
2014,07,04,08,45,15.20
2014,07,04,08,46,15.20
2014,07,04,08,47,15.30
2014,07,04,08,48,15.30
2014,07,04,08,49,15.20
2014,07,04,08,50,15.20
2014,07,04,08,51,15.10
2014,07,04,08,52,15.10
2014,07,04,08,53,15.10
2014,07,04,08,54,15.10
2014,07,04,08,55,15.20
2014,07,04,08,56,15.20
2014,07,04,08,57,15.20
2014,07,04,08,58,15.20
2014,07,04,08,59,15.20
2014,07,04,09,00,15.20
2014,07,04,09,01,15.20
2014,07,04,09,02,15.20
2014,07,04,09,03,15.20
2014,07,04,09,04,15.20
2014,07,04,09,05,15.20
2014,07,04,09,06,15.20
2014,07,04,09,07,15.20
2014,07,04,09,08,15.20
2014,07,04,09,09,15.20
2014,07,04,09,10,15.20
2014,07,04,09,11,15.20
2014,07,04,09,12,15.20
2014,07,04,09,13,15.20
2014,07,04,09,14,15.20
2014,07,04,09,15,15.30
2014,07,04,09,16,15.30
2014,07,04,09,17,15.30
2014,07,04,09,18,15.30
2014,07,04,09,19,15.30
2014,07,04,09,20,15.40
2014,07,04,09,21,15.50
2014,07,04,09,22,15.50
2014,07,04,09,23,15.60
2014,07,04,09,24,15.50
2014,07,04,09,25,15.50
2014,07,04,09,26,15.50
2014,07,04,09,27,15.50
2014,07,04,09,28,15.60
2014,07,04,09,29,15.70
2014,07,04,09,30,15.60
2014,07,04,09,31,15.70
2014,07,04,09,32,15.70
2014,07,04,09,33,15.70
2014,07,04,09,34,15.70
2014,07,04,09,35,15.70
2014,07,04,09,36,15.80
2014,07,04,09,37,15.80
2014,07,04,09,38,15.70
2014,07,04,09,39,15.70
2014,07,04,09,40,15.80
2014,07,04,09,41,15.80
2014,07,04,09,42,15.80
2014,07,04,09,43,15.80
2014,07,04,09,44,15.70
2014,07,04,09,45,15.70
2014,07,04,09,46,15.80
2014,07,04,09,47,15.80
2014,07,04,09,48,15.80
2014,07,04,09,49,15.80
2014,07,04,09,50,15.90
2014,07,04,09,51,16.10
2014,07,04,09,52,16.20
2014,07,04,09,53,16.30
2014,07,04,09,54,16.30
2014,07,04,09,55,16.30
2014,07,04,09,56,16.30
2014,07,04,09,57,16.30
2014,07,04,09,58,16.30
2014,07,04,09,59,16.40
2014,07,04,10,00,16.40
2014,07,04,10,01,16.30
2014,07,04,10,02,16.20
2014,07,04,10,03,16.30
2014,07,04,10,04,16.30
2014,07,04,10,05,16.40
2014,07,04,10,06,16.40
2014,07,04,10,07,16.50
2014,07,04,10,08,16.60
2014,07,04,10,09,16.60
2014,07,04,10,10,16.70
2014,07,04,10,11,16.70
2014,07,04,10,12,16.70
2014,07,04,10,13,16.70
2014,07,04,10,14,16.70
2014,07,04,10,15,16.80
2014,07,04,10,16,16.80
2014,07,04,10,17,16.90
2014,07,04,10,18,16.90
2014,07,04,10,19,16.80
2014,07,04,10,20,16.90
2014,07,04,10,21,16.90
2014,07,04,10,22,16.90
2014,07,04,10,23,16.90
2014,07,04,10,24,16.90
2014,07,04,10,25,16.90
2014,07,04,10,26,16.90
2014,07,04,10,27,16.90
2014,07,04,10,28,17.00
2014,07,04,10,29,17.10
2014,07,04,10,30,17.10
2014,07,04,10,31,17.20
2014,07,04,10,32,17.20
2014,07,04,10,33,17.20
2014,07,04,10,34,17.20
2014,07,04,10,35,17.10
2014,07,04,10,36,17.10
2014,07,04,10,37,17.10
2014,07,04,10,38,17.00
2014,07,04,10,39,17.00
2014,07,04,10,40,17.00
2014,07,04,10,41,16.90
2014,07,04,10,42,16.90
2014,07,04,10,43,16.90
2014,07,04,10,44,16.80
2014,07,04,10,45,16.80
2014,07,04,10,46,16.80
2014,07,04,10,47,16.80
2014,07,04,10,48,16.80
2014,07,04,10,49,16.90
2014,07,04,10,50,16.90
2014,07,04,10,51,17.10
2014,07,04,10,52,17.20
2014,07,04,10,53,17.30
2014,07,04,10,54,17.40
2014,07,04,10,55,17.50
2014,07,04,10,56,17.50
2014,07,04,10,57,17.60
2014,07,04,10,58,17.60
2014,07,04,10,59,17.60
2014,07,04,11,00,17.60
2014,07,04,11,01,17.60
2014,07,04,11,02,17.60
2014,07,04,11,03,17.50
2014,07,04,11,04,17.50
2014,07,04,11,05,17.60
2014,07,04,11,06,17.70
2014,07,04,11,07,17.70
2014,07,04,11,08,17.80
2014,07,04,11,09,17.80
2014,07,04,11,10,17.80
2014,07,04,11,11,17.70
2014,07,04,11,12,17.70
2014,07,04,11,13,17.60
2014,07,04,11,14,17.60
2014,07,04,11,15,17.60
2014,07,04,11,16,17.60
2014,07,04,11,17,17.70
2014,07,04,11,18,17.70
2014,07,04,11,19,17.70
2014,07,04,11,20,17.80
2014,07,04,11,21,17.70
2014,07,04,11,22,17.80
2014,07,04,11,23,17.70
2014,07,04,11,24,17.70
2014,07,04,11,25,17.70
2014,07,04,11,26,17.60
2014,07,04,11,27,17.60
2014,07,04,11,28,17.60
2014,07,04,11,29,17.60
2014,07,04,11,30,17.60
2014,07,04,11,31,17.60
2014,07,04,11,32,17.50
2014,07,04,11,33,17.40
2014,07,04,11,34,17.30
2014,07,04,11,35,17.30
2014,07,04,11,36,17.20
2014,07,04,11,37,17.10
2014,07,04,11,38,17.10
2014,07,04,11,39,17.00
2014,07,04,11,40,17.00
2014,07,04,11,41,17.00
2014,07,04,11,42,16.90
2014,07,04,11,43,16.90
2014,07,04,11,44,16.80
2014,07,04,11,45,16.80
2014,07,04,11,46,16.70
2014,07,04,11,47,16.70
2014,07,04,11,48,16.60
2014,07,04,11,49,16.60
2014,07,04,11,50,16.50
2014,07,04,11,51,16.40
2014,07,04,11,52,16.40
2014,07,04,11,53,16.40
2014,07,04,11,54,16.40
2014,07,04,11,55,16.30
2014,07,04,11,56,16.30
2014,07,04,11,57,16.30
2014,07,04,11,58,16.30
2014,07,04,11,59,16.30
2014,07,04,12,00,16.20
2014,07,04,12,01,16.20
2014,07,04,12,02,16.20
2014,07,04,12,03,16.20
2014,07,04,12,04,16.20
2014,07,04,12,05,16.30
2014,07,04,12,06,16.30
2014,07,04,12,07,16.30
2014,07,04,12,08,16.30
2014,07,04,12,09,16.30
2014,07,04,12,10,16.30
2014,07,04,12,11,16.40
2014,07,04,12,12,16.40
2014,07,04,12,13,16.40
2014,07,04,12,14,16.40
2014,07,04,12,15,16.40
2014,07,04,12,16,16.40
2014,07,04,12,17,16.40
2014,07,04,12,18,16.40
2014,07,04,12,19,16.40
2014,07,04,12,20,16.40
2014,07,04,12,21,16.40
2014,07,04,12,22,16.40
2014,07,04,12,23,16.40
2014,07,04,12,24,16.40
2014,07,04,12,25,16.40
2014,07,04,12,26,16.30
2014,07,04,12,27,16.30
2014,07,04,12,28,16.30
2014,07,04,12,29,16.30
2014,07,04,12,30,16.40
2014,07,04,12,31,16.40
2014,07,04,12,32,16.40
2014,07,04,12,33,16.40
2014,07,04,12,34,16.40
2014,07,04,12,35,16.30
2014,07,04,12,36,16.30
2014,07,04,12,37,16.30
2014,07,04,12,38,16.40
2014,07,04,12,39,16.30
2014,07,04,12,40,16.30
2014,07,04,12,41,16.30
2014,07,04,12,42,16.20
2014,07,04,12,43,16.10
2014,07,04,12,44,16.10
2014,07,04,12,45,16.10
2014,07,04,12,46,16.20
2014,07,04,12,47,16.30
2014,07,04,12,48,16.30
2014,07,04,12,49,16.40
2014,07,04,12,50,16.50
2014,07,04,12,51,16.60
2014,07,04,12,52,16.60
2014,07,04,12,53,16.50
2014,07,04,12,54,16.40
2014,07,04,12,55,16.40
2014,07,04,12,56,16.40
2014,07,04,12,57,16.30
2014,07,04,12,58,16.30
2014,07,04,12,59,16.30
2014,07,04,13,00,16.20
2014,07,04,13,01,16.20
2014,07,04,13,02,16.20
2014,07,04,13,03,16.20
2014,07,04,13,04,16.20
2014,07,04,13,05,16.20
2014,07,04,13,06,16.20
2014,07,04,13,07,16.20
2014,07,04,13,08,16.20
2014,07,04,13,09,16.20
2014,07,04,13,10,16.10
2014,07,04,13,11,16.10
2014,07,04,13,12,16.20
2014,07,04,13,13,16.20
2014,07,04,13,14,16.20
2014,07,04,13,15,16.20
2014,07,04,13,16,16.20
2014,07,04,13,17,16.30
2014,07,04,13,18,16.30
2014,07,04,13,19,16.40
2014,07,04,13,20,16.50
2014,07,04,13,21,16.60
2014,07,04,13,22,16.70
2014,07,04,13,23,16.80
2014,07,04,13,24,16.80
2014,07,04,13,25,16.90
2014,07,04,13,26,16.80
2014,07,04,13,27,16.70
2014,07,04,13,28,16.70
2014,07,04,13,29,16.70
2014,07,04,13,30,16.70
2014,07,04,13,31,16.70
2014,07,04,13,32,16.70
2014,07,04,13,33,16.70
2014,07,04,13,34,16.70
2014,07,04,13,35,16.70
2014,07,04,13,36,16.80
2014,07,04,13,37,16.80
2014,07,04,13,38,16.80
2014,07,04,13,39,16.70
2014,07,04,13,40,16.70
2014,07,04,13,41,16.70
2014,07,04,13,42,16.70
2014,07,04,13,43,16.70
2014,07,04,13,44,16.70
2014,07,04,13,45,16.70
2014,07,04,13,46,16.70
2014,07,04,13,47,16.70
2014,07,04,13,48,16.70
2014,07,04,13,49,16.70
2014,07,04,13,50,16.80
2014,07,04,13,51,16.80
2014,07,04,13,52,16.90
2014,07,04,13,53,16.90
2014,07,04,13,54,16.90
2014,07,04,13,55,16.90
2014,07,04,13,56,16.90
2014,07,04,13,57,16.90
2014,07,04,13,58,16.90
2014,07,04,13,59,16.90
2014,07,04,14,00,16.90
2014,07,04,14,01,16.90
2014,07,04,14,02,16.90
2014,07,04,14,03,17.00
2014,07,04,14,04,17.00
2014,07,04,14,05,17.00
2014,07,04,14,06,17.00
2014,07,04,14,07,16.90
2014,07,04,14,08,16.90
2014,07,04,14,09,17.00
2014,07,04,14,10,17.00
2014,07,04,14,11,17.00
2014,07,04,14,12,17.00
2014,07,04,14,13,17.10
2014,07,04,14,14,17.10
2014,07,04,14,15,17.00
2014,07,04,14,16,17.00
2014,07,04,14,17,17.00
2014,07,04,14,18,16.90
2014,07,04,14,19,16.90
2014,07,04,14,20,17.00
2014,07,04,14,21,17.00
2014,07,04,14,22,17.00
2014,07,04,14,23,17.00
2014,07,04,14,24,17.00
2014,07,04,14,25,17.00
2014,07,04,14,26,17.00
2014,07,04,14,27,17.00
2014,07,04,14,28,17.00
2014,07,04,14,29,17.10
2014,07,04,14,30,17.10
2014,07,04,14,31,17.10
2014,07,04,14,32,17.10
2014,07,04,14,33,17.10
2014,07,04,14,34,17.10
2014,07,04,14,35,17.20
2014,07,04,14,36,17.20
2014,07,04,14,37,17.20
2014,07,04,14,38,17.20
2014,07,04,14,39,17.30
2014,07,04,14,40,17.30
2014,07,04,14,41,17.30
2014,07,04,14,42,17.30
2014,07,04,14,43,17.30
2014,07,04,14,44,17.30
2014,07,04,14,45,17.30
2014,07,04,14,46,17.20
2014,07,04,14,47,17.10
2014,07,04,14,48,17.10
2014,07,04,14,49,17.00
2014,07,04,14,50,17.00
2014,07,04,14,51,16.90
2014,07,04,14,52,16.90
2014,07,04,14,53,16.80
2014,07,04,14,54,16.80
2014,07,04,14,55,16.80
2014,07,04,14,56,16.80
2014,07,04,14,57,16.80
2014,07,04,14,58,16.70
2014,07,04,14,59,16.70
2014,07,04,15,00,16.70
2014,07,04,15,01,16.70
2014,07,04,15,02,16.70
2014,07,04,15,03,16.70
2014,07,04,15,04,16.70
2014,07,04,15,05,16.60
2014,07,04,15,06,16.60
2014,07,04,15,07,16.50
2014,07,04,15,08,16.40
2014,07,04,15,09,16.40
2014,07,04,15,10,16.40
2014,07,04,15,11,16.40
2014,07,04,15,12,16.40
2014,07,04,15,13,16.40
2014,07,04,15,14,16.30
2014,07,04,15,15,16.30
2014,07,04,15,16,16.30
2014,07,04,15,17,16.30
2014,07,04,15,18,16.30
2014,07,04,15,19,16.30
2014,07,04,15,20,16.30
2014,07,04,15,21,16.30
2014,07,04,15,22,16.20
2014,07,04,15,23,16.20
2014,07,04,15,24,16.20
2014,07,04,15,25,16.20
2014,07,04,15,26,16.20
2014,07,04,15,27,16.20
2014,07,04,15,28,16.20
2014,07,04,15,29,16.20
2014,07,04,15,30,16.20
2014,07,04,15,31,16.10
2014,07,04,15,32,16.10
2014,07,04,15,33,16.10
2014,07,04,15,34,16.10
2014,07,04,15,35,16.10
2014,07,04,15,36,16.10
2014,07,04,15,37,16.10
2014,07,04,15,38,16.10
2014,07,04,15,39,16.10
2014,07,04,15,40,16.10
2014,07,04,15,41,16.10
2014,07,04,15,42,15.90
2014,07,04,15,43,15.90
2014,07,04,15,44,15.90
2014,07,04,15,45,15.90
2014,07,04,15,46,15.90
2014,07,04,15,47,15.80
2014,07,04,15,48,15.80
2014,07,04,15,49,15.80
2014,07,04,15,50,15.80
2014,07,04,15,51,15.80
2014,07,04,15,52,15.80
2014,07,04,15,53,15.80
2014,07,04,15,54,15.80
2014,07,04,15,55,15.80
2014,07,04,15,56,15.80
2014,07,04,15,57,15.80
2014,07,04,15,58,15.70
2014,07,04,15,59,15.70
2014,07,04,16,00,15.70
2014,07,04,16,01,15.60
2014,07,04,16,02,15.60
2014,07,04,16,03,15.60
2014,07,04,16,04,15.60
2014,07,04,16,05,15.60
2014,07,04,16,06,15.60
2014,07,04,16,07,15.60
2014,07,04,16,08,15.60
2014,07,04,16,09,15.50
2014,07,04,16,10,15.50
2014,07,04,16,11,15.50
2014,07,04,16,12,15.50
2014,07,04,16,13,15.50
2014,07,04,16,14,15.50
2014,07,04,16,15,15.50
2014,07,04,16,16,15.50
2014,07,04,16,17,15.40
2014,07,04,16,18,15.40
2014,07,04,16,19,15.40
2014,07,04,16,20,15.50
2014,07,04,16,21,15.50
2014,07,04,16,22,15.50
2014,07,04,16,23,15.50
2014,07,04,16,24,15.50
2014,07,04,16,25,15.40
2014,07,04,16,26,15.40
2014,07,04,16,27,15.40
2014,07,04,16,28,15.30
2014,07,04,16,29,15.30
2014,07,04,16,30,15.30
2014,07,04,16,31,15.30
2014,07,04,16,32,15.30
2014,07,04,16,33,15.30
2014,07,04,16,34,15.30
2014,07,04,16,35,15.30
2014,07,04,16,36,15.20
2014,07,04,16,37,15.20
2014,07,04,16,38,15.20
2014,07,04,16,39,15.10
2014,07,04,16,40,15.10
2014,07,04,16,41,15.20
2014,07,04,16,42,15.20
2014,07,04,16,43,15.10
2014,07,04,16,44,15.20
2014,07,04,16,45,15.10
2014,07,04,16,46,15.10
2014,07,04,16,47,15.10
2014,07,04,16,48,15.10
2014,07,04,16,49,15.10
2014,07,04,16,50,15.10
2014,07,04,16,51,15.10
2014,07,04,16,52,15.10
2014,07,04,16,53,15.10
2014,07,04,16,54,15.10
2014,07,04,16,55,15.10
2014,07,04,16,56,15.00
2014,07,04,16,57,15.00
2014,07,04,16,58,15.00
2014,07,04,16,59,15.10
2014,07,04,17,00,15.10
2014,07,04,17,01,15.10
2014,07,04,17,02,15.10
2014,07,04,17,03,15.10
2014,07,04,17,04,15.10
2014,07,04,17,05,15.10
2014,07,04,17,06,15.00
2014,07,04,17,07,15.00
2014,07,04,17,08,15.00
2014,07,04,17,09,15.00
2014,07,04,17,10,15.00
2014,07,04,17,11,15.00
2014,07,04,17,12,15.00
2014,07,04,17,13,15.00
2014,07,04,17,14,14.90
2014,07,04,17,15,14.90
2014,07,04,17,16,14.90
2014,07,04,17,17,14.90
2014,07,04,17,18,14.90
2014,07,04,17,19,14.90